When you browse on this site, cookies collect data to enhance your experience and personalize the content and advertising you see.
Visit our Privacy Policy to learn more. By continuing to use the site, you agree to this use of cookies and data.
  • In Latvia
  • List of Countries
  • For 7 days
  • Water Temperature
  • Weather Map
  • Weather Widgets
  • user-avatar
    Login

    Hourly Weather Bauska

    Today, 12 November, Tuesday

    Time Temperature Precipitation Wind Pressure Humidity
    00:00 +3°C° 0 mm 1 mps 759 mmHg 90%
    01:00 +3°C° 0 mm 1 mps 760 mmHg 90%
    02:00 +2°C° 0 mm 2 mps 760 mmHg 89%
    03:00 +2°C° 0 mm 2 mps 760 mmHg 90%
    04:00 +2°C° 0 mm 2 mps 760 mmHg 92%
    05:00 +2°C° 0 mm 2 mps 760 mmHg 93%
    06:00 +1°C° 0 mm 3 mps 760 mmHg 93%
    07:00 +1°C° 0 mm 3 mps 761 mmHg 93%
    08:00 +1°C° 0 mm 3 mps 761 mmHg 92%
    09:00 +1°C° 0 mm 4 mps 760 mmHg 88%
    10:00 +2°C° 0 mm 5 mps 760 mmHg 83%
    11:00 +3°C° 0 mm 6 mps 760 mmHg 79%
    12:00 +3°C° 0 mm 6 mps 760 mmHg 78%
    13:00 +4°C° 0 mm 6 mps 759 mmHg 76%
    14:00 +4°C° 0 mm 6 mps 759 mmHg 75%
    15:00 +4°C° 0 mm 6 mps 759 mmHg 76%
    16:00 +4°C° 0 mm 6 mps 758 mmHg 77%
    17:00 +4°C° 0 mm 6 mps 758 mmHg 79%
    18:00 +4°C° 0 mm 6 mps 758 mmHg 80%
    19:00 +4°C° 0 mm 6 mps 758 mmHg 81%
    20:00 +4°C° 0 mm 6 mps 758 mmHg 82%
    21:00 +5°C° 0 mm 5 mps 758 mmHg 84%
    22:00 +5°C° 0 mm 5 mps 757 mmHg 85%
    23:00 +5°C° 0 mm 5 mps 757 mmHg 86%

    Tomorrow, 13 November, Wednesday

    Time Temperature Precipitation Wind Pressure Humidity
    00:00 +5°C° 0 mm 5 mps 757 mmHg 87%
    01:00 +6°C° 0 mm 5 mps 757 mmHg 88%
    02:00 +6°C° 0 mm 5 mps 756 mmHg 89%
    03:00 +6°C° 0.1 mm 5 mps 756 mmHg 89%
    04:00 +6°C° 0.1 mm 5 mps 755 mmHg 89%
    05:00 +6°C° 0.1 mm 5 mps 755 mmHg 89%
    06:00 +6°C° 0.2 mm 5 mps 755 mmHg 90%
    07:00 +6°C° 0.2 mm 4 mps 755 mmHg 90%
    08:00 +7°C° 0.2 mm 4 mps 754 mmHg 91%
    09:00 +7°C° 0.1 mm 4 mps 754 mmHg 90%
    10:00 +7°C° 0.1 mm 4 mps 754 mmHg 90%
    11:00 +8°C° 0.1 mm 5 mps 753 mmHg 89%
    12:00 +9°C° 0 mm 5 mps 753 mmHg 87%
    13:00 +10°C° 0 mm 4 mps 753 mmHg 85%
    14:00 +11°C° 0 mm 4 mps 752 mmHg 83%
    15:00 +10°C° 0 mm 5 mps 752 mmHg 82%
    16:00 +10°C° 0 mm 5 mps 751 mmHg 80%
    17:00 +10°C° 0 mm 5 mps 751 mmHg 79%
    18:00 +10°C° 0.1 mm 6 mps 751 mmHg 79%
    19:00 +11°C° 0.1 mm 6 mps 751 mmHg 79%
    20:00 +11°C° 0.1 mm 7 mps 751 mmHg 80%
    21:00 +11°C° 0.2 mm 6 mps 751 mmHg 82%
    22:00 +12°C° 0.2 mm 5 mps 752 mmHg 85%
    23:00 +12°C° 0.2 mm 5 mps 752 mmHg 87%

    Day after tomorrow, 14 November, Thursday

    Time Temperature Precipitation Wind Pressure Humidity
    00:00 +12°C° 0 mm 4 mps 752 mmHg 87%
    01:00 +12°C° 0 mm 4 mps 753 mmHg 87%
    02:00 +12°C° 0 mm 4 mps 753 mmHg 87%
    03:00 +12°C° 0 mm 5 mps 752 mmHg 85%
    04:00 +12°C° 0 mm 5 mps 752 mmHg 83%
    05:00 +11°C° 0 mm 6 mps 752 mmHg 81%
    06:00 +11°C° 0 mm 6 mps 752 mmHg 80%
    07:00 +11°C° 0 mm 6 mps 752 mmHg 79%
    08:00 +11°C° 0 mm 6 mps 752 mmHg 78%
    09:00 +11°C° 0 mm 6 mps 753 mmHg 79%
    10:00 +11°C° 0 mm 6 mps 753 mmHg 79%
    11:00 +12°C° 0 mm 7 mps 754 mmHg 79%
    12:00 +13°C° 0 mm 6 mps 754 mmHg 79%
    13:00 +13°C° 0 mm 6 mps 755 mmHg 79%
    14:00 +14°C° 0 mm 6 mps 756 mmHg 79%
    15:00 +13°C° 0 mm 5 mps 756 mmHg 82%
    16:00 +12°C° 0 mm 4 mps 757 mmHg 85%
    17:00 +12°C° 0 mm 3 mps 757 mmHg 88%
    18:00 +11°C° 0.8 mm 3 mps 757 mmHg 91%
    19:00 +12°C° 0.8 mm 2 mps 758 mmHg 93%
    20:00 +10°C° 0.8 mm 2 mps 758 mmHg 95%
    21:00 +10°C° 0.8 mm 2 mps 758 mmHg 95%
    22:00 +10°C° 0.8 mm 2 mps 759 mmHg 95%
    23:00 +10°C° 0.8 mm 2 mps 759 mmHg 96%

    15 November, Friday

    Time Temperature Precipitation Wind Pressure Humidity
    00:00 +10°C° 0.5 mm 2 mps 759 mmHg 95%
    01:00 +10°C° 0.5 mm 2 mps 759 mmHg 94%
    02:00 +10°C° 0.5 mm 2 mps 759 mmHg 93%
    03:00 +10°C° 0.2 mm 2 mps 759 mmHg 92%
    04:00 +10°C° 0.2 mm 2 mps 759 mmHg 91%
    05:00 +9°C° 0.2 mm 2 mps 759 mmHg 91%
    06:00 +9°C° 0 mm 2 mps 759 mmHg 90%
    07:00 +9°C° 0 mm 2 mps 759 mmHg 90%
    08:00 +8°C° 0 mm 2 mps 760 mmHg 90%
    09:00 +8°C° 0 mm 3 mps 760 mmHg 89%
    10:00 +8°C° 0 mm 3 mps 760 mmHg 88%
    11:00 +8°C° 0 mm 3 mps 760 mmHg 88%
    12:00 +8°C° 0.2 mm 3 mps 760 mmHg 87%
    13:00 +8°C° 0.2 mm 3 mps 760 mmHg 87%
    14:00 +8°C° 0.2 mm 3 mps 760 mmHg 86%
    15:00 +8°C° 0.1 mm 3 mps 760 mmHg 86%
    16:00 +8°C° 0.1 mm 3 mps 760 mmHg 85%
    17:00 +8°C° 0.1 mm 3 mps 760 mmHg 84%
    18:00 +8°C° 0 mm 3 mps 760 mmHg 84%
    19:00 +7°C° 0 mm 3 mps 760 mmHg 85%
    20:00 +7°C° 0 mm 3 mps 761 mmHg 85%
    21:00 +7°C° 0 mm 3 mps 761 mmHg 85%
    22:00 +7°C° 0 mm 3 mps 761 mmHg 86%
    23:00 +5°C° 0 mm 3 mps 761 mmHg 87%

    16 November, Saturday

    Time Temperature Precipitation Wind Pressure Humidity
    00:00 +5°C° 0 mm 3 mps 761 mmHg 88%
    01:00 +5°C° 0 mm 3 mps 761 mmHg 88%
    02:00 +5°C° 0 mm 3 mps 761 mmHg 88%
    03:00 +4°C° 0 mm 3 mps 761 mmHg 89%
    04:00 +4°C° 0 mm 3 mps 761 mmHg 90%
    05:00 +4°C° 0 mm 3 mps 761 mmHg 91%
    06:00 +4°C° 0 mm 3 mps 761 mmHg 91%
    07:00 +4°C° 0 mm 3 mps 761 mmHg 92%
    08:00 +4°C° 0 mm 4 mps 761 mmHg 92%
    09:00 +5°C° 0 mm 4 mps 761 mmHg 90%
    10:00 +6°C° 0 mm 4 mps 761 mmHg 89%
    11:00 +6°C° 0 mm 4 mps 761 mmHg 87%
    12:00 +7°C° 0 mm 4 mps 761 mmHg 86%
    13:00 +8°C° 0 mm 4 mps 761 mmHg 84%
    14:00 +8°C° 0 mm 4 mps 761 mmHg 83%
    15:00 +8°C° 0 mm 4 mps 761 mmHg 85%
    16:00 +7°C° 0 mm 4 mps 761 mmHg 86%
    17:00 +7°C° 0 mm 4 mps 761 mmHg 88%
    18:00 +7°C° 0 mm 4 mps 762 mmHg 89%
    19:00 +7°C° 0 mm 4 mps 762 mmHg 90%
    20:00 +6°C° 0 mm 4 mps 762 mmHg 91%
    21:00 +6°C° 0 mm 4 mps 762 mmHg 92%
    22:00 +6°C° 0 mm 4 mps 763 mmHg 93%
    23:00 +6°C° 0 mm 4 mps 763 mmHg 94%

    17 November, Sunday

    Time Temperature Precipitation Wind Pressure Humidity
    00:00 +6°C° 0 mm 4 mps 763 mmHg 94%
    01:00 +7°C° 0 mm 3 mps 763 mmHg 95%
    02:00 +7°C° 0 mm 3 mps 763 mmHg 95%
    03:00 +7°C° 0 mm 3 mps 763 mmHg 95%
    04:00 +7°C° 0 mm 3 mps 763 mmHg 95%
    05:00 +7°C° 0 mm 3 mps 763 mmHg 96%
    06:00 +7°C° 0 mm 3 mps 764 mmHg 96%
    07:00 +7°C° 0 mm 3 mps 764 mmHg 96%
    08:00 +5°C° 0 mm 3 mps 764 mmHg 96%
    09:00 +7°C° 0 mm 3 mps 764 mmHg 95%
    10:00 +7°C° 0 mm 3 mps 764 mmHg 94%
    11:00 +7°C° 0 mm 4 mps 764 mmHg 93%
    12:00 +7°C° 0 mm 4 mps 764 mmHg 92%
    13:00 +7°C° 0 mm 4 mps 764 mmHg 90%
    14:00 +7°C° 0 mm 4 mps 764 mmHg 89%
    15:00 +8°C° 0 mm 3 mps 764 mmHg 89%
    16:00 +8°C° 0 mm 3 mps 763 mmHg 89%
    17:00 +7°C° 0 mm 3 mps 763 mmHg 89%
    18:00 +7°C° 0 mm 3 mps 763 mmHg 87%
    19:00 +5°C° 0 mm 3 mps 763 mmHg 86%
    20:00 +5°C° 0 mm 4 mps 763 mmHg 84%
    21:00 +4°C° 0 mm 4 mps 763 mmHg 84%
    22:00 +4°C° 0 mm 4 mps 763 mmHg 84%
    23:00 +4°C° 0 mm 4 mps 763 mmHg 84%
    Show more